Regional Weather Roundup
Issued by NWS

Home | Current Version | Previous Version | Graphics & Text | Print | Product List | Glossary On
Versions: 1 2 3 4 5 6 7 8 9 10 11 12 13 14 15 16 17 18 19 20 21 22 23 24 25 26 27 28 29 30 31 32 33 34 35 36 37 38 39 40 41 42 43 44 45 46 47 48 49 50
000
ASUS43 KLSX 251310
RWRMO

WEATHER SUMMARY FOR MISSOURI
NATIONAL WEATHER SERVICE SPRINGFIELD MO
800 AM CDT MON JUL 25 2016

NOTE: "FAIR" INDICATES FEW OR NO CLOUDS BELOW 12,000 FEET WITH NO
       SIGNIFICANT WEATHER AND/OR OBSTRUCTIONS TO VISIBILITY.
       CURRENT SKY AND/OR WEATHER CONDITIONS ARE NOT AVAILABLE FOR
       CHILLICOTHE AND FARMINGTON.

MOZ001>031-035>038-043-044-053-054-251400-
...NORTHERN AND WESTERN MISSOURI...

CITY           SKY/WX    TMP DP  RH WIND       PRES   REMARKS
KANSAS CTY INT CLOUDY    73  67  81 NE9       30.06S
KANSAS C DTWN  CLOUDY    75  67  76 E8        30.04S
LEE`S SUMMIT   CLOUDY    73  70  90 NE5       30.05S
ST JOSEPH      CLOUDY    71  65  81 NE9       30.07F
CHILLICOTHE      N/A     74  66  76 N3        30.07S
KIRKSVILLE     MOSUNNY   72  66  81 N9        30.06F

$$
MOZ066>068-077>081-088>096-101>105-251400-
...SOUTHWEST MISSOURI...

CITY           SKY/WX    TMP DP  RH WIND       PRES   REMARKS
SPRINGFIELD    TSTM      73  70  90 NE18      30.08R VSB 1/2
JOPLIN         MOSUNNY   76  70  82 NE10      30.04R
BRANSON        PTSUNNY   77  68  73 CALM      30.03R

$$
MOZ032>034-039>042-045>050-055>058-069>072-251400-
...CENTRAL MISSOURI...

CITY           SKY/WX    TMP DP  RH WIND       PRES   REMARKS
COLUMBIA       CLOUDY    73  71  93 W6        30.02R
JEFFERSON CITY CLOUDY    74  71  91 SW3       30.03R
ROLLA          CLOUDY    72  71  97 W8        30.04R
SEDALIA        LGT RAIN  73  71  93 NE5       30.04F
WHITEMAN AFB   PTSUNNY   72  72 100 E3        30.02S
OSAGE BEACH    TSTM      72  72 100 S6        30.07F

$$
MOZ051-052-059>065-251400-
...EAST CENTRAL MISSOURI...

CITY           SKY/WX    TMP DP  RH WIND       PRES   REMARKS
ST LOUIS INTL  CLOUDY    76  72  87 W7        30.00R
SPIRIT OF STL  CLOUDY    74  73  97 SW6       29.99R
ST CHARLES     PTSUNNY   74  73  97 W8        29.99R

$$
MOZ072>076-082>087-097>100-106>115-251400-
...SOUTH CENTRAL AND SOUTHEAST MISSOURI...

CITY           SKY/WX    TMP DP  RH WIND       PRES   REMARKS
CAPE GIRARDEAU CLOUDY    79  77  94 S7        29.99S FOG
FARMINGTON     CLOUDY    75  72  90 E3        30.02S
POPLAR BLUFF   PTSUNNY   79  76  90 CALM      29.99S
WEST PLAINS    TSTM      75  72  90 E8        30.08R VSB 1

$$




USA.gov is the U.S. government's official web portal to all federal, state and local government web resources and services.